Regional Weather Roundup
Issued by NWS

Home | Current Version | Previous Version | Graphics & Text | Print | Product List | Glossary On
Versions: 1 2 3 4 5 6 7 8 9 10 11 12 13 14 15 16 17 18 19 20 21 22 23 24 25 26 27 28 29 30 31 32 33 34 35 36 37 38 39 40 41 42 43 44 45 46 47 48 49 50
000
ASUS45 KBOU 030407
RWRCO

WEATHER ROUNDUP FOR COLORADO
NATIONAL WEATHER SERVICE DENVER/BOULDER CO
900 PM MST MON MAR 02 2015

NOTE: "FAIR" INDICATES FEW OR NO CLOUDS BELOW 12000 FEET WITH NO
SIGNIFICANT WEATHER AND/OR OBSTRUCTIONS TO VISIBILITY.

COZ001>005-013-030-031-030500-
...NORTHWEST COLORADO...

CITY           SKY/WX    TMP DP  RH WIND       PRES   REMARKS
CRAIG          CLOUDY    33  32  96 CALM      29.64F
HAYDEN         CLOUDY    32  28  86 E6        29.65F WCI  26
MEEKER         FAIR      37  27  67 SW17      29.65S
MOUNT WERNER   NOT AVBL
STEAMBOAT SPGS CLOUDY    33  31  91 E8        29.67F WCI  26
WALDEN         CLOUDY    30  28  93 SW26G38   29.66R VSB 1   WCI  16
$$

COZ006>008-011-030500-
...WEST CENTRAL VALLEYS...

CITY           SKY/WX    TMP DP  RH WIND       PRES   REMARKS
GRAND JUNCTION CLOUDY    40  33  76 W8        29.74R
MONTROSE       MOCLDY    38  30  73 SE9       29.81F
EAGLE          LGT SNOW  34  32  93 W5        29.74F FOG     WCI  30
RIFLE          CLOUDY    36  32  85 E9        29.69F
DELTA          MOCLDY    40  35  83 E5        29.80R
NUCLA          MOCLDY    36  30  80 SW18G28   29.88R
$$

COZ017>023-064>068-030500-
...SOUTHWEST COLORADO...

CITY           SKY/WX    TMP DP  RH WIND       PRES   REMARKS
DURANGO        CLOUDY    33  32  96 W9        29.91R WCI  25
CORTEZ         CLOUDY    35  29  78 SW13      29.92R WCI  26
PAGOSA SPRINGS LGT SNOW  32  32  99 SW16G28   29.90R WCI  21
TELLURIDE      LGT SNOW  29  16  56 SW25G49   29.86F WCI  15
WOLF CREEK PAS CLOUDY    18  18 100 MISG      29.79S
$$

COZ009-010-012-014-032>034-037-058>063-030500-
...CENTRAL COLORADO...

CITY           SKY/WX    TMP DP  RH WIND       PRES   REMARKS
ASPEN          LGT SNOW  31  30  96 N9        29.71F FOG     WCI  23
BUENA VISTA    LGT SNOW  34  28  80 W30G43    29.69R WCI  20
COPPER MTN     SNOW      25  19  80 W21G31    29.73R VSB 1/4 WCI  10
BERTHOUD PASS  SNOW      18  10  73 W31G40    29.71R VSB 1/2 WCI  -2
COTTONWOOD PAS LGT SNOW  32  23  69 W28G47    29.72R WCI  18
GUNNISON       FAIR      34  21  60 W24G33    29.81R WCI  21
KREMMLING      LGT SNOW  34  30  86 SW23G32   29.71R WCI  22
LEADVILLE      LGT SNOW  25  22  88 W7        29.71S FOG     WCI  17
SALIDA         CLOUDY    35  31  87 SW9       29.78F WCI  28
SUNLIGHT       CLOUDY    25  23  93 S3          N/A
WILKERSON PASS LGT SNOW  28  27  93 SW10G17   29.71R VSB 3/4 WCI  19
$$

COZ069>075-030500-
...SAN LUIS VALLEY/SANGRE DE CRISTO MOUNTAINS...

CITY           SKY/WX    TMP DP  RH WIND       PRES   REMARKS
ALAMOSA        MOCLDY    37  32  82 SW21G32   29.76R
LA VETA PASS   SNOW      30  30 100 S26       29.69R VSB 1/2 WCI  16
SAGUACHE       LGT SNOW  34  32  93 N15G22    29.74R WCI  24
$$

COZ035-036-038>040-030500-
...NORTHERN COLORADO FRONT RANGE...

CITY           SKY/WX    TMP DP  RH WIND       PRES   REMARKS
DENVER INTL AP MOCLDY    29  22  75 W8        29.54R HAZE    WCI  21
DMNS CITY PARK   N/A     29  23  75 NW7       29.58R WCI  22
AURORA         NOT AVBL
FRONT RANGE AP NOT AVBL
ERIE MUNI ARPT FAIR      28  25  88 W5        29.58R FOG     WCI  23
BOULDER MUN AP MOCLDY    32  28  86 SW3       29.58R FOG
CENTENNIAL     MOCLDY    33  25  72 NW9       29.54R HAZE    WCI  25
BROOMFIELD     MOCLDY    30  25  80 NW14      29.56R HAZE    WCI  20
FORT COLLINS   FAIR      30  25  80 N6        29.59R WCI  24
LONGMONT       FAIR      30  25  83 CALM      29.61R HAZE
$$

COZ041-046-047-076>085-087-088-030500-
...PIKES PEAK/PALMER DIVIDE AND SOUTHERN FOOTHILLS...

CITY           SKY/WX    TMP DP  RH WIND       PRES   REMARKS
COLO. SPRINGS  MOCLDY    30  26  85 SE3       29.63F
A. F. ACADEMY  FAIR      26  23  91 N2        29.60F
ELLICOTT       NOT AVBL
FALCON         FAIR      28  25  88 S5        29.62F WCI  23
FORT CARSON    FAIR      27  25  92 SE3       29.61F
LIMON          FAIR      25  24  96 E10       29.58F WCI  15
MONUMENT HILL  FAIR      36  30  80 SW15      29.56F
TRINIDAD       FAIR      40  31  70 W8        29.67F
$$

COZ042>045-048>051-090-091-030500-
...NORTHEAST COLORADO...

CITY           SKY/WX    TMP DP  RH WIND       PRES   REMARKS
GREELEY ARPT   FAIR      30  21  69 NW8       29.57R WCI  23
AKRON          FAIR      29  28  96 SE7       29.52F WCI  22
BURLINGTON     FAIR      32  30  92 S22       29.57F WCI  19
WRAY           CLOUDY    34  31  90 SE12      29.60F WCI  26
STERLING       FAIR      32  30  93 CALM      29.54F
HOLYOKE        NOT AVBL
FORT MORGAN    FAIR      28  26  93 N9        29.54R WCI  19
$$

COZ086-089-092>099-030500-
...SOUTHEAST COLORADO...

CITY           SKY/WX    TMP DP  RH WIND       PRES   REMARKS
PUEBLO         FAIR      29  28  96 CALM      29.63F
LA JUNTA       FAIR      33  30  88 CALM      29.62F
LAMAR          FAIR      33  31  92 W3        29.61F
SPRINGFIELD      N/A     34  31  88 S20       29.70F WCI  23
$$



USA.gov is the U.S. government's official web portal to all federal, state and local government web resources and services.